| time (UTC) | temp C | wind direction | speed KPH | gust KPH | rain 1hr cm | rain 24hr cm | rain mn cm | humidity % | barometer mb |
| 20260510230009 | 18 | 224 | 0.0 | 1.6 | 0.00 | 0.10 | 0.00 | 71 | 1016.2 |
| 20260510224508 | 18 | 260 | 0.0 | 3.2 | 0.00 | 0.13 | 0.00 | 70 | 1016.1 |
| 20260510221510 | 18 | 209 | 0.0 | 4.8 | 0.00 | 0.20 | 0.00 | 66 | 1016.1 |
| 20260510220011 | 19 | 254 | 0.0 | 3.2 | 0.00 | 0.25 | 0.00 | 64 | 1015.8 |
| 20260510214509 | 19 | 302 | 0.0 | 9.7 | 0.00 | 0.28 | 0.00 | 64 | 1015.7 |
| 20260510213009 | 18 | 298 | 0.0 | 8.0 | 0.00 | 0.30 | 0.00 | 68 | 1015.6 |
| 20260510211511 | 18 | 289 | 0.0 | 9.7 | 0.00 | 0.33 | 0.00 | 71 | 1015.5 |
| 20260510210010 | 19 | 272 | 1.6 | 12.9 | 0.00 | 0.38 | 0.00 | 72 | 1015.6 |
| 20260510204509 | 20 | 281 | 1.6 | 11.3 | 0.00 | 0.46 | 0.00 | 70 | 1015.3 |
| 20260510203025 | 21 | 241 | 1.6 | 9.7 | 0.00 | 0.51 | 0.00 | 69 | 1014.8 |
| 20260510201508 | 21 | 196 | 3.2 | 11.3 | 0.00 | 0.58 | 0.00 | 66 | 1014.6 |
| 20260510200010 | 21 | 207 | 3.2 | 11.3 | 0.00 | 0.64 | 0.00 | 65 | 1014.6 |
| 20260510194510 | 21 | 201 | 3.2 | 9.7 | 0.00 | 0.76 | 0.00 | 64 | 1014.7 |
| 20260510193009 | 21 | 184 | 3.2 | 9.7 | 0.00 | 0.84 | 0.00 | 64 | 1014.7 |
| 20260510191526 | 22 | 212 | 3.2 | 14.5 | 0.00 | 0.94 | 0.00 | 61 | 1014.8 |
| 20260510190008 | 22 | 211 | 3.2 | 11.3 | 0.00 | 1.02 | 0.00 | 61 | 1015.0 |
| 20260510183011 | 22 | 174 | 4.8 | 14.5 | 0.00 | 1.09 | 0.00 | 62 | 1014.9 |
| 20260510181510 | 22 | 203 | 4.8 | 11.3 | 0.00 | 1.09 | 0.00 | 63 | 1015.1 |
| 20260510180025 | 22 | 215 | 3.2 | 12.9 | 0.00 | 1.09 | 0.00 | 64 | 1015.1 |
| 20260510174507 | 21 | 202 | 1.6 | 9.7 | 0.00 | 1.09 | 0.00 | 65 | 1015.2 |
| 20260510173009 | 21 | 217 | 3.2 | 11.3 | 0.00 | 1.09 | 0.00 | 68 | 1015.3 |
| 20260510171508 | 20 | 245 | 3.2 | 17.7 | 0.00 | 1.09 | 0.00 | 69 | 1015.4 |
| 20260510170011 | 20 | 179 | 3.2 | 9.7 | 0.00 | 1.09 | 0.00 | 69 | 1015.6 |
| 20260510164511 | 20 | 219 | 3.2 | 14.5 | 0.00 | 1.09 | 0.00 | 71 | 1015.8 |
| 20260510163010 | 19 | 213 | 3.2 | 11.3 | 0.00 | 1.09 | 0.00 | 74 | 1015.8 |
| 20260510161526 | 18 | 206 | 1.6 | 8.0 | 0.00 | 1.09 | 0.00 | 75 | 1016.0 |
| 20260510160010 | 18 | 208 | 1.6 | 6.4 | 0.00 | 1.09 | 0.00 | 74 | 1016.2 |
| 20260510154508 | 18 | 220 | 1.6 | 9.7 | 0.00 | 1.09 | 0.00 | 73 | 1016.4 |
| 20260510153008 | 17 | 191 | 3.2 | 14.5 | 0.00 | 1.09 | 0.00 | 76 | 1016.5 |
| 20260510150025 | 16 | 194 | 1.6 | 17.7 | 0.00 | 1.09 | 0.00 | 78 | 1016.4 |
| 20260510144510 | 15 | 132 | 0.0 | 4.8 | 0.00 | 1.09 | 0.00 | 81 | 1016.5 |
| 20260510141508 | 14 | 143 | 1.6 | 8.0 | 0.00 | 1.09 | 0.00 | 84 | 1016.6 |
| 20260510140023 | 13 | 185 | 0.0 | 4.8 | 0.00 | 1.09 | 0.00 | 85 | 1016.5 |
| 20260510134508 | 13 | 181 | 0.0 | 3.2 | 0.00 | 1.09 | 0.00 | 86 | 1016.5 |
| 20260510133009 | 13 | 336 | 0.0 | 0.0 | 0.00 | 1.09 | 0.00 | 87 | 1016.5 |
| 20260510131509 | 13 | 247 | 0.0 | 3.2 | 0.00 | 1.09 | 0.00 | 87 | 1016.5 |
| 20260510130008 | 13 | 252 | 0.0 | 3.2 | 0.00 | 1.09 | 0.00 | 90 | 1016.5 |
| 20260510124508 | 13 | 174 | 0.0 | 4.8 | 0.00 | 1.09 | 0.00 | 90 | 1016.3 |
| 20260510123008 | 12 | 143 | 0.0 | 4.8 | 0.00 | 1.09 | 0.00 | 92 | 1016.2 |
| 20260510121509 | 12 | 158 | 0.0 | 4.8 | 0.00 | 1.09 | 0.00 | 94 | 1016.2 |
| 20260510120025 | 11 | 198 | 0.0 | 0.0 | 0.00 | 1.09 | 0.00 | 95 | 1016.1 |
| 20260510114510 | 11 | 178 | 0.0 | 1.6 | 0.00 | 1.09 | 0.00 | 95 | 1016.0 |
| 20260510113026 | 11 | 180 | 0.0 | 0.0 | 0.00 | 1.09 | 0.00 | 95 | 1016.0 |
| 20260510111510 | 11 | 180 | 0.0 | 0.0 | 0.00 | 1.09 | 0.00 | 96 | 1015.7 |
| 20260510104508 | 11 | 310 | 0.0 | 0.0 | 0.00 | 1.09 | 0.00 | 95 | 1015.6 |
| 20260510103026 | 11 | 293 | 0.0 | 0.0 | 0.00 | 1.12 | 0.00 | 95 | 1015.3 |
| 20260510101508 | 11 | 200 | 0.0 | 6.4 | 0.00 | 1.12 | 0.00 | 95 | 1015.1 |
| 20260510100010 | 11 | 168 | 0.0 | 1.6 | 0.00 | 1.12 | 0.00 | 95 | 1015.4 |
| 20260510093025 | 11 | 155 | 0.0 | 3.2 | 0.00 | 1.12 | 0.00 | 95 | 1015.4 |
| 20260510090010 | 11 | 292 | 0.0 | 0.0 | 0.00 | 1.14 | 0.00 | 96 | 1015.6 |
| 20260510081509 | 11 | 292 | 0.0 | 0.0 | 0.00 | 1.19 | 0.00 | 95 | 1015.3 |
| 20260510080008 | 11 | 182 | 0.0 | 0.0 | 0.00 | 1.19 | 0.00 | 95 | 1015.2 |
| 20260510074507 | 11 | 166 | 0.0 | 1.6 | 0.00 | 1.19 | 0.00 | 95 | 1015.1 |
| 20260510073007 | 11 | 180 | 0.0 | 0.0 | 0.00 | 1.19 | 0.00 | 95 | 1015.2 |
| 20260510071509 | 11 | 180 | 0.0 | 0.0 | 0.00 | 1.19 | 0.00 | 95 | 1015.2 |
| 20260510064510 | 11 | 180 | 0.0 | 0.0 | 0.00 | 1.19 | 0.00 | 95 | 1015.1 |
| 20260510063008 | 11 | 180 | 0.0 | 0.0 | 0.00 | 1.19 | 0.00 | 94 | 1014.7 |
| 20260510061509 | 11 | 175 | 0.0 | 1.6 | 0.00 | 1.19 | 0.00 | 95 | 1014.7 |
| 20260510060009 | 11 | 155 | 0.0 | 1.6 | 0.00 | 1.19 | 0.00 | 95 | 1014.8 |
| 20260510054523 | 11 | 135 | 0.0 | 0.0 | 0.00 | 1.19 | 0.00 | 95 | 1014.9 |
| 20260510053009 | 11 | 140 | 0.0 | 0.0 | 0.00 | 1.19 | 0.00 | 94 | 1014.9 |
| 20260510051524 | 11 | 196 | 0.0 | 0.0 | 0.00 | 1.19 | 0.00 | 94 | 1015.1 |
| 20260510050009 | 11 | 202 | 0.0 | 0.0 | 0.00 | 1.19 | 0.00 | 94 | 1015.0 |
| 20260510044508 | 11 | 202 | 0.0 | 0.0 | 0.00 | 1.19 | 0.00 | 94 | 1015.0 |
| 20260510043025 | 11 | 202 | 0.0 | 0.0 | 0.00 | 1.19 | 0.00 | 95 | 1014.9 |
| 20260510041508 | 11 | 202 | 0.0 | 0.0 | 0.00 | 1.19 | 0.00 | 94 | 1014.9 |
| 20260510040017 | 11 | 167 | 0.0 | 0.0 | 0.00 | 1.19 | 0.00 | 95 | 1015.0 |
| 20260510034516 | 11 | 135 | 0.0 | 0.0 | 0.00 | 1.19 | 1.19 | 94 | 1015.0 |
| 20260510030016 | 11 | 135 | 0.0 | 0.0 | 0.00 | 1.19 | 1.19 | 95 | 1014.6 |
| 20260510023017 | 11 | 135 | 0.0 | 0.0 | 0.00 | 1.19 | 1.19 | 94 | 1014.9 |
| 20260510020017 | 11 | 135 | 0.0 | 0.0 | 0.00 | 1.19 | 1.19 | 95 | 1015.0 |
| 20260510014519 | 11 | 135 | 0.0 | 0.0 | 0.00 | 1.19 | 1.19 | 94 | 1015.0 |
| 20260510013016 | 11 | 135 | 0.0 | 0.0 | 0.00 | 1.19 | 1.19 | 94 | 1014.9 |
| 20260510011517 | 11 | 135 | 0.0 | 0.0 | 0.00 | 1.19 | 1.19 | 95 | 1014.7 |
| 20260510004518 | 11 | 171 | 0.0 | 3.2 | 0.03 | 1.19 | 1.19 | 94 | 1014.4 |
| 20260510003017 | 11 | 189 | 0.0 | 3.2 | 0.03 | 1.19 | 1.19 | 94 | 1014.2 |
| 20260510001517 | 11 | 165 | 0.0 | 6.4 | 0.05 | 1.19 | 1.19 | 94 | 1014.1 |
| 20260510000017 | 11 | 149 | 0.0 | 1.6 | 0.10 | 1.19 | 1.17 | 94 | 1014.1 |
| 20260509234516 | 11 | 189 | 0.0 | 1.6 | 0.10 | 1.17 | 1.17 | 94 | 1014.5 |
| 20260509231517 | 11 | 201 | 0.0 | 3.2 | 0.15 | 1.14 | 1.09 | 93 | 1014.7 |